When you browse on this site, cookies collect data to enhance your experience and personalize the content and advertising you see.
Visit our Privacy Policy to learn more. By continuing to use the site, you agree to this use of cookies and data.
  • In Hungary
  • List of Countries
  • For 7 days
  • Water Temperature
  • Satellite Maps
  • Weather Map
  • News
  • Weather Widgets
  • user-avatar
    Login

    Hourly Weather Novovoroncovka

    Today, 18 November, Sunday

    Time Temperature Precipitation Wind Pressure Humidity
    00:00 -1°C° 0 mm 2 mps 765 mmHg 73%
    01:00 -1°C° 0 mm 2 mps 765 mmHg 75%
    02:00 -2°C° 0 mm 2 mps 765 mmHg 76%
    03:00 -2°C° 0 mm 2 mps 765 mmHg 75%
    04:00 -2°C° 0 mm 2 mps 765 mmHg 73%
    05:00 0°C° 0 mm 1 mps 764 mmHg 72%
    06:00 +1°C° 0 mm 1 mps 764 mmHg 70%
    07:00 +1°C° 0 mm 1 mps 764 mmHg 68%
    08:00 +1°C° 0 mm 1 mps 763 mmHg 69%
    09:00 +2°C° 0 mm 1 mps 763 mmHg 67%
    10:00 +1°C° 0 mm 0 mps 763 mmHg 65%
    11:00 +2°C° 0 mm 0 mps 763 mmHg 63%
    12:00 +2°C° 0 mm 0 mps 762 mmHg 63%
    13:00 +3°C° 0 mm 0 mps 762 mmHg 62%
    14:00 +3°C° 0 mm 0 mps 762 mmHg 62%
    15:00 +2°C° 0 mm 0 mps 761 mmHg 65%
    16:00 +3°C° 0 mm 1 mps 761 mmHg 68%
    17:00 +2°C° 0 mm 1 mps 761 mmHg 71%
    18:00 +2°C° 0 mm 1 mps 761 mmHg 72%
    19:00 +2°C° 0 mm 1 mps 761 mmHg 73%
    20:00 +2°C° 0 mm 1 mps 761 mmHg 74%
    21:00 +2°C° 0 mm 1 mps 761 mmHg 74%
    22:00 +1°C° 0 mm 2 mps 761 mmHg 73%
    23:00 -1°C° 0 mm 2 mps 760 mmHg 73%

    Tomorrow, 19 November, Monday

    Time Temperature Precipitation Wind Pressure Humidity
    00:00 -1°C° 0 mm 2 mps 760 mmHg 71%
    01:00 -1°C° 0 mm 2 mps 760 mmHg 70%
    02:00 -1°C° 0 mm 2 mps 760 mmHg 68%
    03:00 -1°C° 0 mm 3 mps 760 mmHg 68%
    04:00 -1°C° 0 mm 3 mps 760 mmHg 67%
    05:00 -1°C° 0 mm 3 mps 759 mmHg 67%
    06:00 -1°C° 0 mm 4 mps 759 mmHg 69%
    07:00 -1°C° 0 mm 4 mps 759 mmHg 71%
    08:00 -1°C° 0 mm 5 mps 759 mmHg 73%
    09:00 0°C° 0 mm 5 mps 759 mmHg 74%
    10:00 0°C° 0 mm 5 mps 759 mmHg 76%
    11:00 +1°C° 0 mm 5 mps 759 mmHg 77%
    12:00 +1°C° 0.2 mm 6 mps 759 mmHg 77%
    13:00 +1°C° 0.2 mm 6 mps 758 mmHg 76%
    14:00 +2°C° 0.2 mm 7 mps 757 mmHg 76%
    15:00 0°C° 1.3 mm 7 mps 757 mmHg 79%
    16:00 0°C° 1.3 mm 7 mps 756 mmHg 81%
    17:00 0°C° 1.3 mm 8 mps 756 mmHg 84%
    18:00 0°C° 0.9 mm 8 mps 755 mmHg 85%
    19:00 0°C° 0.9 mm 9 mps 755 mmHg 86%
    20:00 0°C° 0.9 mm 9 mps 755 mmHg 88%
    21:00 +1°C° 0.9 mm 9 mps 754 mmHg 88%
    22:00 +1°C° 0.9 mm 9 mps 753 mmHg 89%
    23:00 +2°C° 0.9 mm 9 mps 753 mmHg 89%

    Day after tomorrow, 20 November, Tuesday

    Time Temperature Precipitation Wind Pressure Humidity
    00:00 +2°C° 0.4 mm 9 mps 753 mmHg 90%
    01:00 +2°C° 0.4 mm 8 mps 752 mmHg 90%
    02:00 +4°C° 0.4 mm 8 mps 752 mmHg 91%
    03:00 +4°C° 0.2 mm 7 mps 752 mmHg 92%
    04:00 +4°C° 0.2 mm 7 mps 752 mmHg 92%
    05:00 +4°C° 0.2 mm 6 mps 752 mmHg 93%
    06:00 +3°C° 0.2 mm 6 mps 753 mmHg 92%
    07:00 +3°C° 0.2 mm 6 mps 753 mmHg 91%
    08:00 +3°C° 0.2 mm 6 mps 754 mmHg 90%
    09:00 +3°C° 0 mm 6 mps 754 mmHg 88%
    10:00 +3°C° 0 mm 6 mps 755 mmHg 86%
    11:00 +2°C° 0 mm 6 mps 755 mmHg 84%
    12:00 +2°C° 0 mm 6 mps 756 mmHg 82%
    13:00 +2°C° 0 mm 6 mps 756 mmHg 80%
    14:00 +2°C° 0 mm 6 mps 757 mmHg 78%
    15:00 +2°C° 0 mm 5 mps 757 mmHg 79%
    16:00 +2°C° 0 mm 5 mps 758 mmHg 81%
    17:00 +1°C° 0 mm 4 mps 758 mmHg 82%
    18:00 +1°C° 0 mm 4 mps 758 mmHg 83%
    19:00 0°C° 0 mm 4 mps 759 mmHg 83%
    20:00 0°C° 0 mm 4 mps 759 mmHg 84%
    21:00 0°C° 0 mm 4 mps 759 mmHg 84%
    22:00 0°C° 0 mm 4 mps 759 mmHg 84%
    23:00 0°C° 0 mm 4 mps 760 mmHg 84%

    21 November, Wednesday

    Time Temperature Precipitation Wind Pressure Humidity
    00:00 0°C° 0 mm 4 mps 760 mmHg 84%
    01:00 0°C° 0 mm 4 mps 760 mmHg 85%
    02:00 0°C° 0 mm 4 mps 760 mmHg 86%
    03:00 -1°C° 0 mm 4 mps 760 mmHg 86%
    04:00 -1°C° 0 mm 4 mps 760 mmHg 85%
    05:00 -1°C° 0 mm 4 mps 760 mmHg 85%
    06:00 -1°C° 0 mm 4 mps 760 mmHg 84%
    07:00 -1°C° 0 mm 4 mps 760 mmHg 84%
    08:00 -1°C° 0 mm 4 mps 760 mmHg 83%
    09:00 -1°C° 0 mm 4 mps 760 mmHg 81%
    10:00 0°C° 0 mm 4 mps 760 mmHg 79%
    11:00 0°C° 0 mm 4 mps 760 mmHg 77%
    12:00 +1°C° 0 mm 4 mps 760 mmHg 76%
    13:00 +1°C° 0 mm 4 mps 759 mmHg 75%
    14:00 +3°C° 0 mm 4 mps 759 mmHg 74%
    15:00 +1°C° 0 mm 5 mps 759 mmHg 76%
    16:00 +1°C° 0 mm 5 mps 759 mmHg 77%
    17:00 0°C° 0 mm 5 mps 759 mmHg 79%
    18:00 0°C° 0 mm 5 mps 759 mmHg 79%
    19:00 0°C° 0 mm 5 mps 759 mmHg 79%
    20:00 0°C° 0 mm 5 mps 760 mmHg 79%
    21:00 -1°C° 0 mm 5 mps 760 mmHg 80%
    22:00 -1°C° 0 mm 5 mps 760 mmHg 80%
    23:00 -1°C° 0 mm 4 mps 760 mmHg 81%

    22 November, Thursday

    Time Temperature Precipitation Wind Pressure Humidity
    00:00 -2°C° 0 mm 5 mps 760 mmHg 81%
    01:00 -2°C° 0 mm 5 mps 760 mmHg 82%
    02:00 -2°C° 0 mm 5 mps 760 mmHg 82%
    03:00 -2°C° 0 mm 5 mps 760 mmHg 82%
    04:00 -4°C° 0 mm 5 mps 760 mmHg 82%
    05:00 -4°C° 0 mm 5 mps 760 mmHg 82%
    06:00 -4°C° 0 mm 5 mps 760 mmHg 81%
    07:00 -4°C° 0 mm 5 mps 760 mmHg 79%
    08:00 -4°C° 0 mm 5 mps 761 mmHg 77%
    09:00 -2°C° 0 mm 5 mps 761 mmHg 72%
    10:00 -1°C° 0 mm 5 mps 761 mmHg 66%
    11:00 0°C° 0 mm 5 mps 761 mmHg 60%
    12:00 0°C° 0 mm 5 mps 761 mmHg 59%
    13:00 0°C° 0 mm 5 mps 761 mmHg 58%
    14:00 0°C° 0 mm 5 mps 761 mmHg 58%
    15:00 -1°C° 0 mm 5 mps 761 mmHg 63%
    16:00 -2°C° 0 mm 5 mps 761 mmHg 69%
    17:00 -3°C° 0 mm 4 mps 761 mmHg 74%
    18:00 -3°C° 0 mm 4 mps 762 mmHg 77%
    19:00 -3°C° 0 mm 4 mps 762 mmHg 80%
    20:00 -4°C° 0 mm 4 mps 763 mmHg 82%
    21:00 -4°C° 0 mm 4 mps 763 mmHg 82%
    22:00 -4°C° 0 mm 4 mps 763 mmHg 82%
    23:00 -4°C° 0 mm 4 mps 763 mmHg 83%

    23 November, Friday

    Time Temperature Precipitation Wind Pressure Humidity
    00:00 -4°C° 0 mm 4 mps 763 mmHg 82%
    01:00 -4°C° 0 mm 4 mps 763 mmHg 82%
    02:00 -5°C° 0 mm 4 mps 764 mmHg 82%
    03:00 -5°C° 0 mm 4 mps 764 mmHg 82%
    04:00 -5°C° 0 mm 4 mps 764 mmHg 82%
    05:00 -5°C° 0 mm 4 mps 764 mmHg 81%
    06:00 -5°C° 0 mm 4 mps 765 mmHg 81%
    07:00 -5°C° 0 mm 4 mps 765 mmHg 80%
    08:00 -5°C° 0 mm 4 mps 765 mmHg 79%
    09:00 -4°C° 0 mm 4 mps 765 mmHg 74%
    10:00 -2°C° 0 mm 4 mps 766 mmHg 69%
    11:00 -1°C° 0 mm 4 mps 766 mmHg 63%
    12:00 -1°C° 0 mm 4 mps 766 mmHg 62%
    13:00 0°C° 0 mm 4 mps 766 mmHg 61%
    14:00 +1°C° 0 mm 3 mps 766 mmHg 59%
    15:00 0°C° 0 mm 3 mps 766 mmHg 66%
    16:00 -1°C° 0 mm 3 mps 766 mmHg 72%
    17:00 -2°C° 0 mm 3 mps 766 mmHg 78%
    18:00 -4°C° 0 mm 3 mps 766 mmHg 81%
    19:00 -4°C° 0 mm 3 mps 766 mmHg 83%
    20:00 -4°C° 0 mm 3 mps 766 mmHg 86%
    21:00 -3°C° 0 mm 2 mps 766 mmHg 87%
    22:00 -3°C° 0 mm 2 mps 766 mmHg 87%
    23:00 -4°C° 0 mm 2 mps 766 mmHg 88%
    Show more